CDT,Max TemperatureF,Mean TemperatureF,Min TemperatureF,Max Dew PointF,MeanDew PointF,Min DewpointF,Max Humidity, Mean Humidity, Min Humidity, Max Sea Level PressureIn, Mean Sea Level PressureIn, Min Sea Level PressureIn, Max VisibilityMiles, Mean VisibilityMiles, Min VisibilityMiles, Max Wind SpeedMPH, Mean Wind SpeedMPH, Max Gust SpeedMPH,PrecipitationIn, CloudCover, Events, WindDirDegrees
2013-6-1,91,86,82,76,75,73,82,74,59,29.91,29.85,29.83,10,10,10,21,16,28,0.00,4,,163
2013-6-2,91,80,71,76,71,68,90,75,48,30.06,29.96,29.87,10,8,0,32,10,43,1.00,3,Fog-Rain-Thunderstorm,74
2013-6-3,95,82,72,70,68,63,85,65,39,29.96,29.90,29.84,10,10,6,15,5,,0.00,0,,63
2013-6-4,91,82,75,74,69,65,79,62,43,29.92,29.87,29.83,10,10,9,15,7,28,0.00,0,,133
2013-6-5,93,85,77,76,74,71,84,69,50,29.88,29.84,29.78,10,10,10,13,7,45,0.00,2,,146
2013-6-6,95,86,78,76,74,70,87,70,47,29.90,29.82,29.75,10,10,3,22,7,38,0.08,4,Rain-Thunderstorm,98
2013-6-7,93,84,75,72,69,65,85,65,41,29.94,29.89,29.85,10,10,6,24,8,84,0.04,4,Rain-Thunderstorm,358
2013-6-8,91,84,78,75,72,70,81,68,54,29.92,29.88,29.83,10,10,7,14,5,23,0.01,3,Rain-Thunderstorm,154
2013-6-9,91,82,75,77,72,66,83,69,55,29.94,29.89,29.86,10,10,2,14,9,21,0.07,3,Rain-Thunderstorm,134
2013-6-10,93,84,75,76,74,70,85,68,55,29.98,29.95,29.94,10,10,7,18,7,22,0.00,1,,124
2013-6-11,93,86,82,76,75,73,77,66,54,30.04,30.00,29.97,10,10,10,15,9,,0.00,1,,156
2013-6-12,91,86,81,77,75,70,79,68,53,30.06,30.03,29.99,10,10,10,16,10,23,0.00,2,,161
2013-6-13,90,85,81,78,76,74,88,76,61,30.05,30.00,29.93,10,10,4,13,9,,0.02,1,Rain,167
2013-6-14,91,84,78,77,75,72,90,73,55,29.98,29.95,29.90,10,10,9,13,7,,0.00,1,,170
2013-6-15,90,85,80,75,74,73,84,71,57,30.00,29.94,29.90,10,10,10,13,8,,0.00,1,,170
2013-6-16,91,86,82,76,74,73,74,68,59,30.03,29.97,29.93,10,10,10,17,12,102,0.00,2,,172
2013-6-17,91,86,82,76,75,73,79,69,59,30.00,29.95,29.90,10,10,10,18,13,24,0.00,1,,178
2013-6-18,90,86,82,75,74,72,77,69,57,29.99,29.95,29.88,10,10,10,16,13,23,0.00,2,,185
2013-6-19,91,86,82,75,74,70,77,69,52,29.99,29.95,29.92,10,10,10,15,12,20,0.00,3,,182
2013-6-20,91,86,82,75,74,72,79,68,53,30.07,30.01,29.97,10,10,10,17,13,21,0.00,2,,163
2013-6-21,91,86,82,76,74,71,79,68,52,30.09,30.05,30.01,10,10,10,14,11,22,0.00,1,,163
2013-6-22,93,88,82,76,75,74,82,67,56,30.06,30.01,29.95,10,10,10,17,12,21,0.00,1,,158
2013-6-23,93,88,84,75,74,72,74,63,52,30.01,29.98,29.94,10,10,10,17,12,24,0.00,2,,164
2013-6-24,93,88,84,75,74,72,74,65,50,30.06,30.01,29.97,10,10,10,18,13,24,0.00,3,Rain,161
2013-6-25,93,90,84,77,75,73,74,65,54,30.04,30.00,29.94,10,10,9,17,14,28,0.00,4,,168
2013-6-26,95,88,84,75,74,73,70,63,51,30.01,29.97,29.93,10,10,10,20,14,25,0.00,2,,172
2013-6-27,96,88,84,75,73,69,67,62,44,30.03,29.98,29.94,10,10,10,16,11,17,0.00,2,,180
2013-6-28,95,88,82,76,74,68,77,64,43,30.00,29.93,29.83,10,10,10,17,10,23,0.00,2,,212
2013-6-29,96,88,82,78,75,71,77,66,47,29.88,29.81,29.73,10,10,10,16,12,23,0.00,0,,211
2013-6-30,104,91,80,76,69,61,85,53,27,29.88,29.82,29.78,10,10,10,14,6,22,0.00,0,,295